Regional Weather Roundup
Issued by NWS

Home | Current Version | Previous Version | Graphics & Text | Print | Product List | Glossary On
Versions: 1 2 3 4 5 6 7 8 9 10 11 12 13 14 15 16 17 18 19 20 21 22 23 24 25 26 27 28
000
ASUS45 KBOU 240110
RWRCO

WEATHER ROUNDUP FOR COLORADO
NATIONAL WEATHER SERVICE DENVER/BOULDER CO
600 PM MST THU NOV 23 2017

NOTE: "FAIR" INDICATES FEW OR NO CLOUDS BELOW 12000 FEET WITH NO
SIGNIFICANT WEATHER AND/OR OBSTRUCTIONS TO VISIBILITY.

COZ001>005-013-030-031-240200-
...NORTHWEST COLORADO...

CITY           SKY/WX    TMP DP  RH WIND       PRES   REMARKS
CRAIG          FAIR      41  32  70 CALM      30.18S
HAYDEN         FAIR      48  37  65 SW3       30.20F
MEEKER         FAIR      47  34  60 NW3       30.19F
RABBIT EARS PA FAIR      32  32 100 W13G20    30.33S FOG     WCI  22
STEAMBOAT SPGS FAIR      44  35  70 CALM      30.20F
WALDEN         FAIR      46  30  53 S7        30.22S
$$

COZ006>008-011-240200-
...WEST CENTRAL VALLEYS...

CITY           SKY/WX    TMP DP  RH WIND       PRES   REMARKS
GRAND JUNCTION FAIR      46  31  55 NE3       30.19S
MONTROSE       FAIR      50  34  54 CALM      30.23S
EAGLE          FAIR      44  34  67 E9        30.25S
RIFLE          FAIR      44  37  76 E3        30.21F
DELTA          FAIR      51  33  50 NE5       30.20S
NUCLA          FAIR      57  30  35 CALM      30.26
$$

COZ017>023-064>068-240200-
...SOUTHWEST COLORADO...

CITY           SKY/WX    TMP DP  RH WIND       PRES   REMARKS
DURANGO        FAIR      50  29  44 W5        30.25R
CORTEZ         FAIR      42  28  57 CALM      30.23S
PAGOSA SPRINGS FAIR      40  25  55 CALM      30.30R
TELLURIDE      FAIR      48  20  32 CALM      30.38S
WOLF CREEK PAS FAIR      37  21  52 SW8       30.53S
$$

COZ009-010-012-014-032>034-037-058>063-240200-
...CENTRAL COLORADO...

CITY           SKY/WX    TMP DP  RH WIND       PRES   REMARKS
ASPEN          FAIR      38  29  70 S7        30.29R
BUENA VISTA    FAIR      48  19  31 W8        30.23S
COPPER MTN     FAIR      34  23  64 MISG      30.43F
BERTHOUD PASS  FAIR      30  19  64 NW47G54   30.36R WCI  12
COTTONWOOD PAS FAIR      52  14  22 W13G22    30.33S
GUNNISON       FAIR      41  31  67 N5        30.29S
KREMMLING      FAIR      43  32  65 CALM      30.24S
LEADVILLE      FAIR      40  17  39 NW5G18    30.33F
MONARCH PASS   FAIR      32  23  69 W32       30.52F WCI  17
SALIDA         FAIR      55  22  27 SW10G22   30.29S
SUNLIGHT       FAIR      34  23  64 SW10G20   30.44S WCI  26
WILKERSON PASS FAIR      39  10  30 NW3       30.40R
$$

COZ069>075-240200-
...SAN LUIS VALLEY/SANGRE DE CRISTO MOUNTAINS...

CITY           SKY/WX    TMP DP  RH WIND       PRES   REMARKS
ALAMOSA        FAIR      46  26  45 N3        30.25S
DEL NORTE      FAIR      40  26  57 W8        30.29S
LA VETA PASS   FAIR      41  18  38 S25G33      N/A
SAGUACHE       FAIR      36  27  69 CALM      30.29S
$$

COZ035-036-038>040-240200-
...NORTHERN COLORADO FRONT RANGE...

CITY           SKY/WX    TMP DP  RH WIND       PRES   REMARKS
DENVER INTL AP MOCLDY    50  26  39 S8        30.00F
DMNS CITY PARK   N/A     56  23  27 SE6       29.99F
AURORA         MOCLDY    62  19  19 W10       30.01F
FRONT RANGE AP MOCLDY    59  25  27 SW8       30.01F
ERIE MUNI ARPT FAIR      58  23  26 SE7       30.04S
BOULDER MUN AP FAIR      66  23  19 W18       29.98F
CENTENNIAL     MOCLDY    54  27  35 S7        30.03F
BROOMFIELD     MOCLDY    64  19  17 SW3       30.02F
FORT COLLINS   FAIR      51  36  56 N7        29.98S
LONGMONT       FAIR      67  26  21 W9        30.00S
$$

COZ041-046-047-076>085-087-088-240200-
...PIKES PEAK/PALMER DIVIDE AND SOUTHERN FOOTHILLS...

CITY           SKY/WX    TMP DP  RH WIND       PRES   REMARKS
COLO. SPRINGS  MOCLDY    59  29  31 VRB3      30.10R
A. F. ACADEMY  FAIR      53  29  40 E7        30.09F
SCHRIEVER AFB  MOCLDY    54  27  34 SW3       30.09F
CHEYENNE MTN   MOCLDY    56  25  29 N5        30.07R
ELLICOTT         N/A    N/A N/A N/A S5        30.08S
FALCON         FAIR      51  26  38 W6        30.13R
FORT CARSON    FAIR      55  33  43 NE3       30.06S
LIMON          FAIR      50  32  50 VRB3      30.02S
MONUMENT HILL  FAIR      46  30  53 S9        30.13S
CANON CITY     FAIR      64  27  24 CALM      30.05R
WALSENBURG     FAIR      63  19  19 W15       30.08F
TRINIDAD       FAIR      51  34  52 W10       30.09S
$$

COZ042>045-048>051-090-091-240200-
...NORTHEAST COLORADO...

CITY           SKY/WX    TMP DP  RH WIND       PRES   REMARKS
GREELEY ARPT   FAIR      47  34  60 CALM      29.96
AKRON          FAIR      52  26  36 SW8       29.95F
BURLINGTON     FAIR      52  36  54 SW9       29.97F
WRAY           NOT AVBL
YUMA           FAIR      48  23  37 SW8       29.92F
STERLING       FAIR      52  32  46 W13       29.91S
HOLYOKE        FAIR      54  32  43 W7        29.90S
FORT MORGAN    FAIR      54  26  34 W3        29.96S
$$

COZ086-089-092>099-240200-
...SOUTHEAST COLORADO...

CITY           SKY/WX    TMP DP  RH WIND       PRES   REMARKS
PUEBLO         FAIR      60  30  32 S3        30.01R
LA JUNTA       FAIR      57  34  41 S7        29.99F
LAMAR          FAIR      46  31  55 S8        29.96F
SPRINGFIELD      N/A     50  33  52 S8        30.02F
$$




USA.gov is the U.S. government's official web portal to all federal, state and local government web resources and services.